Weather in Sanskoye

Russia / Ryazan Oblast     54°22′40″N   40°45′51″E
temp.,
°C
wind,
m/s
gust,
m/s
humid.,
%
clouds,
%
prec.,
mm/h
press.,
hPa
HPBL,
m
10 august, wed
wed1000:00+16nne3595100 0.6 1020127
03:00+16nne3395100 1.8 102085
06:00+17n1193100 0.7 102165
09:00+18nne3389100 1.4 1020275
12:00+18nne2390100 0.4 1022324
15:00+21nne5574100 0.5 1021797
18:00+20nne4675100 0.0 1021541
21:00+17nne369069 0.0 1022191
11 august, thu
thu1100:00+15nne349596 0.0 102382
03:00+14nne369476 0.0 1023121
06:00+14ne3883100 0.0 1024207
09:00+20ene5853100 0.0 1024573
12:00+25ne553529 0.0 10241481
15:00+26ne44325 0.0 10231720
18:00+25nne45360 0.0 1022783
21:00+17ne35530 0.0 102357
12 august, fri
fri1200:00+15ene33680 0.0 102429
03:00+13ne22750 0.0 102416
06:00+14ne23720 0.0 102546
09:00+21ne33450 0.0 1025556
12:00+25nne323155 0.0 10241468
15:00+27nne32272 0.0 10221651
18:00+26n23330 0.0 1022220
21:00+18n22490 0.0 102312
13 august, sat
sat1300:00+16ne22560 0.0 102314
03:00+14ne22632 0.0 102311
06:00+15ne226313 0.0 102437
09:00+23e22405 0.0 1023444
12:00+28ene222882 0.0 10221530
15:00+29ene2225100 0.0 10211812
18:00+27e2333100 0.0 102166
21:00+21e2243100 0.0 102114
14 august, sun
sun1400:00+18e344898 0.0 102144
03:00+18ese3355100 0.0 102138
06:00+18e355493 0.0 1021108
09:00+24ese464192 0.1 1021488
12:00+27ese4533100 0.3 10201118
15:00+30e332783 0.3 10191773
18:00+26nne3437100 0.0 101872
21:00+23ene354595 0.0 101892